Regional Weather Roundup
Issued by NWS Green Bay, WI

Home | Current Version | Previous Version | Text Only | Print | Product List | Glossary On
Versions: 1 2 3 4 5 6 7 8 9 10 11 12 13 14 15 16 17 18 19 20 21 22 23 24 25 26 27 28 29 30 31 32 33 34 35 36 37 38 39 40 41 42 43 44 45 46 47 48 49 50
000
ASUS43 KGRB 191700
RWRGRB

NORTH-CENTRAL AND NORTHEAST WISCONSIN REGIONAL WEATHER ROUNDUP
NATIONAL WEATHER SERVICE GREEN BAY WI
1200 PM CDT THU APR 19 2018

WIZ005-009-010>012-018-019-191800-
NORTH CENTRAL WISCONSIN

CITY           SKY/WX    TMP DP  RH WIND       PRES   REMARKS
IRONWOOD       FAIR      41  16  36 NW6       30.40S
MANITOWISH WTR NOT AVBL
ARBOR VITAE    NOT AVBL
EAGLE RIVER    FAIR      46   8  21 N7        30.34R
LAND O LAKES   FAIR      44  11  25 N10       30.36S
RHINELANDER    FAIR      48  10  21 N7        30.35R
PHILLIPS       FAIR      45  16  31 N6        30.37R
ANTIGO         NOT AVBL
TOMAHAWK       NOT AVBL
MERRILL          N/A     47  16  28 NE9       30.36R
$$

WIZ013-073-191800-
NORTHEAST WISCONSIN

CITY           SKY/WX    TMP DP  RH WIND       PRES   REMARKS
IRON MOUNTAIN  FAIR      47  15  27 N13       30.30R
MARINETTE      FAIR      48  12  23 N8G17     30.32R
$$

WIZ017-030-035>037-045-191800-
CENTRAL WISCONSIN

CITY           SKY/WX    TMP DP  RH WIND       PRES   REMARKS
MEDFORD        NOT AVBL
WAUSAU         FAIR      45  16  31 NW6       30.35R
MOSINEE        SUNNY     43  19  39 NW8       30.37R
MARSHFIELD     FAIR      40  22  48 W9        30.38R
WISC RAPIDS    FAIR      42  19  39 NW8       30.39R
STEVENS POINT  NOT AVBL
WAUPACA        FAIR      52  13  21 W5        30.35S
SHAWANO        FAIR      51  15  23 N7        30.32S
CLINTONVILLE   FAIR      48  12  23 N5        30.34R
WAUTOMA        FAIR      42  21  43 W9        30.38R
$$

WIZ038-039-048-051-191800-
FOX VALLEY

CITY           SKY/WX    TMP DP  RH WIND       PRES   REMARKS
NWS GREEN BAY  FAIR      45  21  38 NW9       30.34R
APPLETON       SUNNY     43  18  36 W7        30.33R
OSHKOSH        FAIR      41  21  44 W7        30.35R
FOND DU LAC    FAIR      41  18  39 NW7       30.36R
$$

WIZ022-050-052-191800-
EAST CENTRAL WISCONSIN

CITY           SKY/WX    TMP DP  RH WIND       PRES   REMARKS
EPHRAIM        NOT AVBL
WASHINGTON ISL NOT AVBL
STURGEON BAY   FAIR      42  19  39 N12       30.32R
MANITOWOC      FAIR      41  19  41 NW10      30.34R
SHEBOYGAN      FAIR      42  20  41 N10       30.33R
$$

LMZ563-521-522-541>543-191800-
LAKESHORE

STATION/POSITION TIME  TEMP    WIND        PRES    VSBY  WAVE
                       AIR SEA DIR/SP/G                  HT/PER
                 (UTC) (F)     (DEG/KT/KT) (MB)    (MI)  (FT/S)
KEWAUNEE LKSHORE 1624   42     340/  6/  8 1025.8
NORTHPORT PIER   1640   36                 1025.7R
SISTER BAY LKSHO 1612   42     340/  6/  8   N/A
MENOMINEE LKSHOR 1624   41     360/ 11/ 13 1025.8
$$




USA.gov is the U.S. government's official web portal to all federal, state and local government web resources and services.